Find Starlink 3230

NORAD ID: 50845 Int'l Des: 2022-001 Owner: SPXS Country: US Constellation: starlink operational
LEOCIRCULAR

当前视图

正在加载3D地球...

关于 Starlink 3230

正在加载描述...

即将过境

Passes for default location (London). Set your location on the main map for personalized predictions.

高度历史

Loading altitude history...

两行轨道根数

1 50845U 22001AU 26150.38318966 -.00000330 00000-0 -26286-5 0 9992
2 50845 53.1982 172.3744 0001230 75.9561 284.1567 15.08833507242606
Epoch: May 30, 2026 • Age: 27 hours

当前状态

高度 558.9 km
速度 7.58 km/s
星下点 -52.62°S, 1.55°W
发射日期 Jan 6, 2022
运行时间 4.3 years
类型 internet

技术详情

分类 Payload
质量 297.00 kg
干质量 275.00 kg
总质量 297.00 kg
长度 0.20 m
直径 2.80 m
跨度 9.00 m
形状 Box + pan
制造商 SPXS
平台类型 Starlink
阶段状态 In Orbit
所有者/国家 SPXS/US

Most Searched